• In Hungary
  • List of Countries
  • For 7 days
  • Water Temperature
  • Satellite Maps
  • Weather Map
  • News
  • Weather Widgets
  • user-avatar
    Login

    Hourly Weather Gembloux

    Today, 22 September, Saturday

    Time Temperature Precipitation Wind Pressure Humidity
    00:00 +11°C° 0 mm 4 mps 750 mmHg 74%
    01:00 +10°C° 0 mm 4 mps 750 mmHg 76%
    02:00 +10°C° 0 mm 4 mps 750 mmHg 79%
    03:00 +10°C° 0 mm 4 mps 750 mmHg 81%
    04:00 +10°C° 0 mm 4 mps 750 mmHg 81%
    05:00 +10°C° 0 mm 4 mps 750 mmHg 81%
    06:00 +10°C° 0 mm 4 mps 751 mmHg 81%
    07:00 +10°C° 0 mm 5 mps 751 mmHg 77%
    08:00 +12°C° 0 mm 5 mps 751 mmHg 72%
    09:00 +14°C° 0 mm 5 mps 751 mmHg 68%
    10:00 +14°C° 0.1 mm 5 mps 751 mmHg 66%
    11:00 +14°C° 0.1 mm 5 mps 751 mmHg 64%
    12:00 +15°C° 0.1 mm 5 mps 750 mmHg 63%
    13:00 +14°C° 0.2 mm 5 mps 750 mmHg 67%
    14:00 +13°C° 0.2 mm 4 mps 750 mmHg 71%
    15:00 +13°C° 0.2 mm 4 mps 750 mmHg 76%
    16:00 +12°C° 0.4 mm 3 mps 750 mmHg 80%
    17:00 +11°C° 0.4 mm 3 mps 750 mmHg 84%
    18:00 +10°C° 0.4 mm 3 mps 749 mmHg 88%
    19:00 +10°C° 0.6 mm 2 mps 749 mmHg 89%
    20:00 +10°C° 0.6 mm 2 mps 749 mmHg 91%
    21:00 +10°C° 0.6 mm 2 mps 748 mmHg 92%
    22:00 +10°C° 0.9 mm 3 mps 748 mmHg 92%
    23:00 +10°C° 0.9 mm 3 mps 747 mmHg 92%

    Tomorrow, 23 September, Sunday

    Time Temperature Precipitation Wind Pressure Humidity
    00:00 +10°C° 0.9 mm 3 mps 746 mmHg 92%
    01:00 +11°C° 0.6 mm 3 mps 746 mmHg 92%
    02:00 +12°C° 0.6 mm 2 mps 745 mmHg 93%
    03:00 +13°C° 0.6 mm 2 mps 745 mmHg 94%
    04:00 +13°C° 0.5 mm 2 mps 745 mmHg 94%
    05:00 +13°C° 0.5 mm 2 mps 744 mmHg 94%
    06:00 +13°C° 0.5 mm 2 mps 744 mmHg 95%
    07:00 +13°C° 0.3 mm 2 mps 744 mmHg 94%
    08:00 +13°C° 0.3 mm 1 mps 744 mmHg 93%
    09:00 +13°C° 0.3 mm 1 mps 744 mmHg 92%
    10:00 +13°C° 1.6 mm 3 mps 744 mmHg 93%
    11:00 +14°C° 1.6 mm 4 mps 743 mmHg 94%
    12:00 +14°C° 1.6 mm 5 mps 742 mmHg 95%
    13:00 +13°C° 3.3 mm 5 mps 742 mmHg 94%
    14:00 +10°C° 3.3 mm 5 mps 743 mmHg 93%
    15:00 +9°C° 3.3 mm 5 mps 743 mmHg 92%
    16:00 +8°C° 0.3 mm 5 mps 745 mmHg 91%
    17:00 +8°C° 0.3 mm 5 mps 747 mmHg 91%
    18:00 +7°C° 0.3 mm 5 mps 748 mmHg 91%
    19:00 +7°C° 0 mm 4 mps 750 mmHg 92%
    20:00 +7°C° 0 mm 4 mps 751 mmHg 93%
    21:00 +8°C° 0 mm 3 mps 753 mmHg 94%
    22:00 +8°C° 0 mm 3 mps 754 mmHg 93%
    23:00 +8°C° 0 mm 2 mps 754 mmHg 91%

    Day after tomorrow, 24 September, Monday

    Time Temperature Precipitation Wind Pressure Humidity
    00:00 +8°C° 0 mm 2 mps 755 mmHg 90%
    01:00 +7°C° 0 mm 2 mps 756 mmHg 90%
    02:00 +7°C° 0 mm 2 mps 757 mmHg 89%
    03:00 +7°C° 0 mm 2 mps 757 mmHg 88%
    04:00 +6°C° 0 mm 2 mps 758 mmHg 88%
    05:00 +7°C° 0 mm 1 mps 759 mmHg 88%
    06:00 +7°C° 0 mm 1 mps 759 mmHg 88%
    07:00 +9°C° 0 mm 1 mps 760 mmHg 80%
    08:00 +10°C° 0 mm 2 mps 760 mmHg 72%
    09:00 +13°C° 0 mm 2 mps 761 mmHg 64%
    10:00 +14°C° 0 mm 2 mps 761 mmHg 59%
    11:00 +14°C° 0 mm 3 mps 761 mmHg 54%
    12:00 +16°C° 0 mm 3 mps 761 mmHg 50%
    13:00 +16°C° 0.1 mm 3 mps 761 mmHg 51%
    14:00 +14°C° 0.1 mm 4 mps 761 mmHg 53%
    15:00 +14°C° 0.1 mm 4 mps 761 mmHg 55%
    16:00 +13°C° 0 mm 3 mps 761 mmHg 62%
    17:00 +11°C° 0 mm 3 mps 762 mmHg 69%
    18:00 +9°C° 0 mm 2 mps 762 mmHg 76%
    19:00 +9°C° 0 mm 2 mps 762 mmHg 79%
    20:00 +8°C° 0 mm 2 mps 763 mmHg 82%
    21:00 +8°C° 0 mm 1 mps 763 mmHg 85%
    22:00 +8°C° 0 mm 1 mps 763 mmHg 86%
    23:00 +8°C° 0 mm 1 mps 763 mmHg 87%

    25 September, Tuesday

    Time Temperature Precipitation Wind Pressure Humidity
    00:00 +7°C° 0 mm 1 mps 763 mmHg 87%
    01:00 +7°C° 0 mm 1 mps 763 mmHg 88%
    02:00 +6°C° 0 mm 1 mps 763 mmHg 88%
    03:00 +6°C° 0 mm 1 mps 763 mmHg 89%
    04:00 +6°C° 0 mm 1 mps 763 mmHg 89%
    05:00 +6°C° 0 mm 1 mps 763 mmHg 89%
    06:00 +6°C° 0 mm 1 mps 763 mmHg 89%
    07:00 +7°C° 0 mm 2 mps 764 mmHg 80%
    08:00 +9°C° 0 mm 2 mps 764 mmHg 71%
    09:00 +11°C° 0 mm 3 mps 764 mmHg 62%
    10:00 +12°C° 0 mm 3 mps 764 mmHg 56%
    11:00 +14°C° 0 mm 3 mps 764 mmHg 51%
    12:00 +16°C° 0 mm 3 mps 763 mmHg 46%
    13:00 +16°C° 0 mm 3 mps 763 mmHg 46%
    14:00 +16°C° 0 mm 3 mps 762 mmHg 46%
    15:00 +16°C° 0 mm 3 mps 762 mmHg 47%
    16:00 +13°C° 0 mm 3 mps 762 mmHg 52%
    17:00 +12°C° 0 mm 3 mps 762 mmHg 58%
    18:00 +10°C° 0 mm 2 mps 761 mmHg 64%
    19:00 +9°C° 0 mm 2 mps 761 mmHg 66%
    20:00 +8°C° 0 mm 2 mps 762 mmHg 68%
    21:00 +8°C° 0 mm 2 mps 762 mmHg 69%
    22:00 +7°C° 0 mm 2 mps 761 mmHg 70%
    23:00 +7°C° 0 mm 2 mps 761 mmHg 70%

    26 September, Wednesday

    Time Temperature Precipitation Wind Pressure Humidity
    00:00 +6°C° 0 mm 2 mps 761 mmHg 71%
    01:00 +6°C° 0 mm 2 mps 760 mmHg 71%
    02:00 +7°C° 0 mm 1 mps 760 mmHg 71%
    03:00 +6°C° 0 mm 1 mps 760 mmHg 72%
    04:00 +6°C° 0 mm 1 mps 760 mmHg 71%
    05:00 +6°C° 0 mm 1 mps 760 mmHg 70%
    06:00 +6°C° 0 mm 1 mps 759 mmHg 70%
    07:00 +8°C° 0 mm 1 mps 760 mmHg 63%
    08:00 +11°C° 0 mm 1 mps 760 mmHg 56%
    09:00 +13°C° 0 mm 1 mps 760 mmHg 49%
    10:00 +15°C° 0 mm 1 mps 760 mmHg 45%
    11:00 +18°C° 0 mm 1 mps 759 mmHg 41%
    12:00 +19°C° 0 mm 1 mps 759 mmHg 38%
    13:00 +19°C° 0 mm 1 mps 759 mmHg 38%
    14:00 +20°C° 0 mm 1 mps 758 mmHg 39%
    15:00 +19°C° 0 mm 2 mps 758 mmHg 40%
    16:00 +18°C° 0 mm 1 mps 758 mmHg 46%
    17:00 +14°C° 0 mm 1 mps 758 mmHg 53%
    18:00 +12°C° 0 mm 1 mps 757 mmHg 59%
    19:00 +12°C° 0 mm 1 mps 758 mmHg 61%
    20:00 +11°C° 0 mm 1 mps 758 mmHg 62%
    21:00 +10°C° 0 mm 1 mps 758 mmHg 64%
    22:00 +9°C° 0 mm 2 mps 757 mmHg 64%
    23:00 +9°C° 0 mm 2 mps 757 mmHg 64%

    27 September, Thursday

    Time Temperature Precipitation Wind Pressure Humidity
    00:00 +8°C° 0 mm 2 mps 757 mmHg 64%
    01:00 +8°C° 0 mm 2 mps 757 mmHg 64%
    02:00 +8°C° 0 mm 2 mps 756 mmHg 63%
    03:00 +8°C° 0 mm 2 mps 756 mmHg 63%
    04:00 +8°C° 0 mm 2 mps 756 mmHg 64%
    05:00 +8°C° 0 mm 3 mps 756 mmHg 64%
    06:00 +8°C° 0 mm 3 mps 755 mmHg 65%
    07:00 +10°C° 0 mm 3 mps 755 mmHg 62%
    08:00 +12°C° 0 mm 3 mps 755 mmHg 59%
    09:00 +15°C° 0 mm 4 mps 755 mmHg 55%
    10:00 +17°C° 0 mm 4 mps 755 mmHg 53%
    11:00 +19°C° 0 mm 4 mps 755 mmHg 51%
    12:00 +20°C° 0 mm 4 mps 755 mmHg 49%
    13:00 +20°C° 0 mm 4 mps 754 mmHg 50%
    14:00 +21°C° 0 mm 4 mps 754 mmHg 51%
    15:00 +21°C° 0 mm 4 mps 753 mmHg 52%
    16:00 +19°C° 0 mm 3 mps 753 mmHg 61%
    17:00 +17°C° 0 mm 2 mps 753 mmHg 70%
    18:00 +15°C° 0 mm 2 mps 753 mmHg 79%
    19:00 +14°C° 0 mm 2 mps 754 mmHg 83%
    20:00 +14°C° 0 mm 2 mps 754 mmHg 87%
    21:00 +14°C° 0 mm 2 mps 755 mmHg 90%
    22:00 +13°C° 0.1 mm 3 mps 755 mmHg 90%
    23:00 +12°C° 0.1 mm 3 mps 755 mmHg 90%
    Show more